Regional Weather Roundup
Issued by NWS

Home | Current Version | Previous Version | Graphics & Text | Print | Product List | Glossary On
Versions: 1 2 3 4 5 6 7 8 9 10 11 12 13 14 15 16 17 18 19 20 21 22 23 24 25 26 27 28 29 30 31 32 33 34 35 36 37 38 39 40 41 42 43 44 45 46 47 48 49 50
000
ASUS43 KDMX 302108
RWRIA

WEATHER ROUNDUP FOR IOWA
NATIONAL WEATHER SERVICE DES MOINES IA
400 PM CDT SAT APR 30 2016

NOTE: "FAIR" INDICATES FEW OR NO CLOUDS BELOW 12,000 FEET WITH NO
SIGNIFICANT WEATHER AND/OR OBSTRUCTIONS TO VISIBILITY.

* - THESE STATIONS ARE NOT NWS STATIONS...THUS NOT UNDER NWS
QUALITY CONTROL.  THEY ALSO DO NOT REPORT WEATHER SUCH
AS PRECIPITATION OR FOG.

IAZ001>003-012>014-020>022-031>034-043>046-302200-
   NORTHWEST IOWA

CITY           SKY/WX    TMP DP  RH WIND       PRES   REMARKS
CARROLL *      CLOUDY    48  46  93 NE22      29.82R
CHEROKEE *     CLOUDY    46  45  93 NE21G31   29.87R
DENISON *      PTSUNNY   46  46 100 E20G29    29.78R FOG
LE MARS *      CLOUDY    46  45  93 NE16G23   29.86S
ORANGE CITY *  CLOUDY    45  41  87 E18G28    29.87R
SHELDON *      CLOUDY    45  43  93 E30G38    29.87R
SIOUX CITY     LGT RAIN  49  44  83 E22G30    29.83R
SPENCER        CLOUDY    44  40  85 E35G44    29.88R
STORM LAKE *   CLOUDY    45  43  93 E31G40    29.85R
$$

IAZ055>058-069>071-079>083-090>094-302200-
   SOUTHWEST IOWA

CITY           SKY/WX    TMP DP  RH WIND       PRES   REMARKS
ATLANTIC *     CLOUDY    50  46  87 E13G22    29.77R
AUDUBON *      LGT RAIN  46  45  93 E17       29.80R
CLARINDA *       N/A    N/A N/A N/A MISG        N/A
COUNCIL BLFS * CLOUDY    48  48 100 E13       29.77R FOG
CRESTON *      CLOUDY    50  50 100 E15       29.77R FOG
HARLAN  *      CLOUDY    48  46  93 E20G25    29.81R
LAMONI         CLOUDY    55  53  93 NE9       29.74R
RED OAK *      CLOUDY    52  50  93 NE10      29.76R FOG
SHENANDOAH *   CLOUDY    54  54 100 NE10      29.75R
$$

IAZ047>049-059>061-072>074-084-302200-
   CENTRAL IOWA

CITY           SKY/WX    TMP DP  RH WIND       PRES   REMARKS
AMES           LGT RAIN  49  49 100 E18G28    29.82F FOG
ANKENY *       PTSUNNY   50  50 100 NE13      29.81R FOG
BOONE *        CLOUDY    48  48 100 E22G33    29.81S FOG
CHARITON *     CLOUDY    52  52 100 E9        29.76R FOG
DES MOINES     DRIZZLE   51  47  86 E16G22    29.80R FOG
GRINNELL*      DRIZZLE   48  48 100 NE23G29   29.81S
KNOXVILLE *    CLOUDY    50  48  93 E17G26    29.76R FOG
MARSHALLTOWN   CLOUDY    48  45  89 E25G35    29.83R
NEWTON *       CLOUDY    50  50 100 NE23G29   29.79S FOG
PELLA *        CLOUDY    50  48  93 E12G24    29.79R
$$

IAZ004>006-015-016-023>025-035-036-302200-
   NORTH CENTRAL IOWA

CITY           SKY/WX    TMP DP  RH WIND       PRES   REMARKS
ALGONA *       CLOUDY    45  43  93 E26G36    29.90R
CLARION *      CLOUDY    45  45 100 E22G30    29.89R FOG
ESTHERVILLE    LGT RAIN  43  41  93 NE30G38   29.92F
FORT DODGE *   CLOUDY    46  41  81 E25G31    29.87S
MASON CITY     LGT RAIN  44  42  93 NE25G35   29.91F
FOREST CITY *  RAIN      43  41  93 NE20G28   29.91F
WEBSTER CITY * CLOUDY    46  46 100 NE25G31   29.84S
IOWA FALLS *   LGT RAIN  48  45  87 E23G30    29.88S
$$

IAZ007>011-017>019-026>030-037>042-050>054-066-302200-
   NORTHEAST IOWA

CITY           SKY/WX    TMP DP  RH WIND       PRES   REMARKS
CEDAR RAPIDS   LGT RAIN  48  46  93 NE16G30   29.83R FOG
CHARLES CITY * RAIN      45  45 100 NE22G30   29.91F
CLINTON *      LGT RAIN  46  44  93 E22G31    29.83S
DECORAH *      RAIN      45  45 100 NE12G18   29.97R
DUBUQUE        RAIN      45  43  93 NE18G31   29.87F FOG
MONTICELLO *   LGT RAIN  46  45  93 E22G28    29.86S
OELWEIN *      CLOUDY    46  46 100 NE17G29   29.90F FOG
WATERLOO       LGT RAIN  47  44  90 E21       29.89R FOG
$$

IAZ064-065-067-068-078-302200-
   EAST CENTRAL IOWA

CITY           SKY/WX    TMP DP  RH WIND       PRES   REMARKS
DAVENPORT      LGT RAIN  47  45  93 E23G32    29.82R
IOWA CITY      LGT RAIN  49  47  93 NE14G25   29.83S FOG
MT. PLEASANT * DRIZZLE   57  57 100 NE9       29.76R
MUSCATINE *    PTSUNNY   50  48  93 E10       29.81R FOG
QUAD CITIES    LGT RAIN  50  47  89 E18G28    29.80S FOG
$$

IAZ062-063-075>077-085>089-095>099-302200-
   SOUTHEAST IOWA

CITY           SKY/WX    TMP DP  RH WIND       PRES   REMARKS
BURLINGTON     CLOUDY    57  57 100 E9        29.75R FOG
FAIRFIELD *    PTSUNNY   52  52 100 NE16      29.76S FOG
FORT MADISON * CLOUDY    57  57 100 E7        29.75R
KEOKUK *       CLOUDY    61  61 100 SE6       29.73R
OSKALOOSA *    CLOUDY    50  50 100 NE20      29.78R FOG
OTTUMWA        CLOUDY    52  50  93 NE15      29.77R FOG
WASHINGTON *   PTSUNNY   50  50 100 NE17G24   29.80R FOG
$$

ABBREVIATIONS USED IN REMARKS
   TC - TEMPERATURES IN CELSIUS
  WCI - WIND CHILL INDEX
   HX - HEAT INDEX
  VSB - VISIBILITY
$$




USA.gov is the U.S. government's official web portal to all federal, state and local government web resources and services.